www.pogodaiklimat.ru
ПОГОДА в Сучава
Время
(UTC), дата
18 28.06
21 28.06
00 29.06
03 29.06
06 29.06
09 29.06
12 29.06
15 29.06
18 29.06
21 29.06
00 30.06
03 30.06
06 30.06
09 30.06
12 30.06
15 30.06
18 30.06
21 30.06
00 1.07
03 1.07
06 1.07
09 1.07
12 1.07
15 1.07
18 1.07
21 1.07
00 2.07
03 2.07
06 2.07
09 2.07
12 2.07
15 2.07
18 2.07
21 2.07
00 3.07
03 3.07
06 3.07
09 3.07
12 3.07
15 3.07
18 3.07
21 3.07
00 4.07
03 4.07
06 4.07
09 4.07
12 4.07
15 4.07
18 4.07
21 4.07
00 5.07
03 5.07
06 5.07
09 5.07
12 5.07
15 5.07
Ветер
(напр.,м/с)
Видим. Явления Облачность Т
(С)
Тd
(С)
f
(%)
Тe
(С)
Тes
(С)
Комфортность P
(гПа)
Po
(гПа)
Тmin
(С)
Tmax
(С)
R
(мм)
R24
(мм)
S
(см)
С 2-3
{5}
20 км 8/4 600 м
[Sc diur, vesp Ac cuf Ci fib]
+24.2 +18.2 69 +29 +29 душно 1011.5 971.3 +23.2 +29.6
З 1-2
{3}
20 км 4/0
[Ac lent]
+20.7 +17.7 83 +26 +26 душно 1011.4 970.7
СЗ 2-3
{3}
20 км ясно +18.5 +16.4 88 +20 +20 1011.1 970.1
З 1-2
{2}
20 км ясно +17.2 +16.0 93 +18 +18 1011.3 970.1
ЮЗ 1-2
{2}
20 км ясно +23.3 +18.9 76 +30 +38 очень
душно
1010.0 969.7 +16.7 +24.1
СЗ 3-6
{6}
20 км 1/1 600 м
[Cu med, cong]
+26.8 +18.2 59 +31 +44 душно 1008.8 969.0
штиль 0-3
{5}
20 км 5/5 600 м
[Cu med, cong]
+28.4 +16.2 48 +32 +42 душно 1007.1 967.6
ЮВ 2-4
{4}
20 км 9/5 600 м
[Cb calv Ac As]
+27.2 +20.8 68 +34 +35 очень
душно
1006.2 966.6
ЮЗ 2-3
{3}
20 км 6/0
[Ac As Ci fib]
+24.0 +20.4 80 +30 +30 очень
душно
1005.6 965.6 +23.4 +29.3
ЮВ 1-2
{4}
10 км 6/0
[Ac As]
+19.8 +18.5 92 +24 +24 комфорт 1006.3 965.6
ЮЗ 1-2
{4}
10 км ясно +18.2 +17.3 94 +20 +20 1005.8 964.9
СЗ 1-2
{8}
10 км 8/0
[Ac As]
+19.4 +16.1 81 +22 +22 комфорт 1006.6 965.9
С 6-10
{11}
20 км 10/5 600 м
[Sc Ac As]
+17.9 +16.1 89 +17 +18 1009.2 968.2 +17.9 +24.0
СЗ 6-9
{10}
20 км 8/4 600 м
[Cu med, cong Ac As]
+20.5 +15.5 73 +23 +25 комфорт 1010.0 969.3
СЗ 6-8
{10}
20 км 6/4 600 м
[Cu med, cong Ac lent]
+21.8 +14.5 63 +25 +28 комфорт 1010.0 969.5
С 2-4
{7}
20 км 6/4 600 м
[Cu med, cong Ac As]
+23.5 +15.8 62 +27 +29 душно 1009.6 969.3
ЮВ 2-3
{4}
20 км 8/4 600 м
[Cu med, cong Ac cuf]
+21.1 +16.6 75 +25 +25 комфорт 1010.5 969.9 +17.8 +24.4
С 1-1
{4}
10 км 9/5 600 м
[Cu med, cong Ac cuf]
+20.0 +16.4 80 +24 +24 комфорт 1011.8 971.0
ЮЗ 2-3
{4}
10 км {дождь} 9/5 600 м
[Sc Ac As]
+18.1 +16.6 91 +19 +19 1012.7 971.6 0.3
Ю 1-2
{3}
10 км 3/3 600 м
[Sc]
+15.3 +13.6 90 +16 +16 1013.3 971.8
З 3-4
{4}
20 км ясно +20.8 +14.3 66 +24 +30 комфорт 1013.2 972.4 +15.0 +21.2 0.3
С 2-4
{5}
20 км 3/3 600 м
[Cu med, cong]
+25.2 +12.6 45 +27 +39 жарко 1012.6 972.4
З 2-4
{5}
20 км 9/4 600 м
[Cu med, cong Ac cuf Ci fib]
+26.2 +11.8 41 +28 +33 жарко 1011.9 971.9
Ю 2-4
{4}
20 км 3/3 600 м
[Cu med, cong]
+27.1 +15.5 49 +30 +34 душно 1011.0 971.2
В 2-3
{4}
20 км ясно +23.0 +17.0 69 +28 +28 душно 1011.5 971.1 +20.9 +28.5
Ю 2-3
{3}
20 км ясно +18.8 +15.3 80 +20 +20 1012.7 971.7
Ю 1-2
{2}
20 км ясно +17.1 +15.7 91 +18 +18 1012.7 971.5
Ю 2-2
{2}
20 км ясно +15.6 +14.7 94 +15 +16 1012.0 970.6
ЮВ 2-2
{2}
20 км ясно +21.9 +17.4 76 +26 +33 душно 1011.5 970.9 +15.4 +23.0
ЮВ 4-6
{6}
20 км ясно +26.3 +17.8 60 +31 +42 душно 1010.5 970.6
ЮВ 4-7
{9}
20 км 1/1 600 м
[Cu med, cong]
+28.6 +17.6 51 +33 +42 очень
душно
1009.2 969.6
ЮВ 6-8
{8}
20 км 3/3 600 м
[Cu med, cong]
+28.5 +17.4 51 +33 +34 очень
душно
1008.2 968.6
ЮВ 2-3
{4}
20 км 5/5 600 м
[Sc diur, vesp]
+24.3 +20.2 78 +30 +30 очень
душно
1008.3 968.2 +21.9 +28.9
Ю 4-5
{5}
20 км ясно +21.8 +17.6 77 +26 +26 душно 1008.6 968.2
Ю 3-4
{4}
20 км ясно +19.2 +17.6 90 +21 +21 комфорт 1008.4 967.6
В 1-2
{3}
20 км 3/0
[Ac lent Ci fib]
+17.8 +17.0 95 +19 +19 1008.8 967.8
С 1-2
{4}
20 км 3/0
[Ac lent Ci fib]
+23.0 +18.1 74 +29 +36 очень
душно
1009.2 968.9 +16.7 +24.3
В 2-4
{4}
20 км 6/4 600 м
[Cb calv Ac cuf]
+26.0 +19.2 66 +31 +39 очень
душно
1008.5 968.6
ЮВ 4-5
{5}
20 км 9/5 600 м
[Cb calv Ac As]
+26.2 +21.0 73 +33 +35 очень
душно
1008.2 968.4
С 4-6
{7}
20 км {ливн. дождь} 9/5 600 м
[Cb calv Ac As]
+22.4 +17.2 72 +27 +28 душно 1008.9 968.5 0.2
З 2-4
{5}
10 км в посл. час ливневой дождь 9/5 600 м
[Cb calv Ac As]
+20.4 +18.5 89 +25 +25 комфорт 1009.6 968.9 +20.0 +27.9 2
С 3-6
{6}
10 км в посл. час ливневой дождь 10/5 600 м
[Cb calv Ac As]
+20.0 +18.5 91 +23 +23 комфорт 1011.1 970.3 3
СЗ 3-5
{5}
4000 м слаб. дождь 10/8 600 м
[Sc Ac As]
+19.1 +18.8 98 +21 +21 комфорт 1012.3 971.3 8
СЗ 4-6
{6}
10 км {дождь} 10/6 600 м
[Sc Ac As]
+17.8 +16.7 93 +18 +18 1012.9 971.8 2
СЗ 5-7
{7}
10 км {дождь} 10/6 600 м
[Sc Ac As]
+18.2 +17.0 93 +18 +19 1013.9 972.7 +17.7 +20.5 15.1
СЗ 3-6
{6}
10 км слаб. дождь 10/6 600 м
[Sc Ac As]
+20.0 +18.1 89 +23 +25 комфорт 1014.2 973.3 0.3
СЗ 4-6
{7}
10 км слаб. дождь 10/6 600 м
[Sc Ac As]
+20.1 +19.2 95 +24 +25 комфорт 1014.4 973.5 1
СЗ 4-7
{7}
20 км {дождь} 10/5 600 м
[Sc Ac As]
+21.3 +18.0 81 +25 +26 комфорт 1013.6 972.9 0.0
С 4-6
{7}
20 км {дождь} 10/6 600 м
[Sc Ac As]
+20.7 +17.3 81 +24 +24 комфорт 1013.5 972.7 +18.2 +22.4
СЗ 3-5
{5}
20 км 9/5 600 м
[Sc Ac As]
+18.2 +16.8 92 +19 +19 1014.7 973.5
СЗ 3-5
{5}
10 км 6/4 600 м
[Sc Ac As]
+17.8 +16.3 91 +18 +18 1014.2 973.0
СЗ 2-4
{6}
10 км 9/6 600 м
[Sc Ac As]
+17.0 +15.3 90 +17 +17 1014.2 972.9
С 3-5
{6}
20 км 1/1 600 м
[Cu med, cong]
+19.8 +16.9 83 +23 +28 комфорт 1014.4 973.4 +16.9 +20.7 1.5
СЗ 3-5
{5}
20 км 8/8 600 м
[Cu Sc]
+21.8 +15.9 69 +25 +28 комфорт 1013.9 973.3
С 3-5
{6}
20 км 3/3 600 м
[Cu med, cong]
+24.9 +17.3 63 +29 +38 душно 1012.5 972.3
С 3-5
{7}
20 км 4/4 600 м
[Cu med, cong]
+26.0 +16.8 57 +30 +32 душно 1011.4 971.4
Местоположение метеостанции Сучава (Румыния): широта 47.63 долгота 26.25 высота над уровнем моря 350 м.
В архиве по умолчанию представлена погода в Сучава за последнюю неделю. Архивные данные за месяц целиком и за предыдущие месяцы, начиная с января 2011 года, Вы можете получить, выбрав интересующий диапазон дат из раскрывающегося списка и нажав кнопку "Найти!".
*Определитесь, кто Вы:
Внимание! Время в таблицах - всемирное. Для получения местного времени необходимо прибавить поправку, которая равна 2 ч.
Смотрите также архив погоды в соседних городах и на ближайших метеорологических станциях:
Партнеры нашего сайта:      
Пояснения к столбцам:
  • Ветер - указаны скорость ветра в м/с - средняя за 10 мин, порывы в срок и между сроками (в фигурных скобках) и направление, откуда дует ветер: С - северный,
  • СВ - северо-восточный, В - восточный, ЮВ - юго-восточный, Ю - южный, ЮЗ - юго-западный, З - западный, СЗ - северо-западный.
  • Видимость - горизонтальная дальность видимости в метрах или километрах. При видимости от 1 до 10 км при отсутствии осадков обычно наблюдается дымка, при ухудшении видимости до 1 км и менее - туман. В сухую погоду видимость может ухудшаться дымом, пылью или мглою.
  • Явления - указаны атмосферные явления, наблюдавшиеся в срок или в последний час перед сроком; фигурными скобками обозначены явления, наблюдавшиеся между сроками (за 1-3 часа до срока); квадратными скобками обозначены град или гололедные отложения с указанием их диаметра в мм.
  • Облачность - указаны через наклонную черту общая и нижняя облачность в баллах и высота нижней границы облаков в метрах; квадратными скобками обозначены формы облаков: Ci - перистые, Cs - перисто-слоистые, Cc - перисто-кучевые, Ac - высококучевые, As - высокослоистые, Sc - слоисто-кучевые, Ns - слоисто-дождевые, Cu - кучевые, Cb - кучево-дождевые. Подробнее классификацию облаков см. в Атласе облаков (PDF).
  • T - Температура воздуха - температура, измеренная на высоте 2 м над землей.
  • Td - Температура точки росы - температура, при понижении до которой содержащийся в воздухе водяной пар достигнет насыщения.
  • f - Относительная влажность воздуха - влажноcть воздуха, измеренная на высоте 2 м над землей.
  • Te - Эффективная температура - температура, которую ощущает одетый по сезону человек в тени. Характеристика душности погоды. При расчете учитывается влияние влажности воздуха и скорости ветра на теплоощущения человека.
  • Tes - Эффективная температура на солнце - температура, которую ощущает человек, с поправкой на солнечный нагрев. Характеристика знойности погоды. Зависит от высоты солнца над горизонтом, облачности и скорости ветра. Ночью, в пасмурную погоду, а также при ветре 12 м/с и более поправка равна нулю.
  • P - Атмосферное давление - приведенное к уровню моря атмосферное давление.
  • Po - Атмосферное давление - измеренное на уровне метеостанции атмосферное давление.
  • Tmin - Минимальная температура - минимум температуры воздуха на высоте 2 м над землей.
  • Tmax - Максимальная температура - максимум температуры воздуха на высоте 2 м над землей.
  • R - Количество осадков - Количество выпавших осадков за период времени, мм. При наведении курсора мыши на число - период времени, за который выпало указанное количество осадков.
  • R24 - Количество осадков - Количество выпавших осадков за 24 часа, мм.
  • S - Снежный покров - Высота снежного покрова, см. При наведении курсора мыши на число - состояние снежного покрова и степень покрытия местности в баллах.